EW2642 Weather Reports


Display with metric or nautical units.
time (UTC)temp
F
wind
direction
speed
MPH
gust
MPH
rain 1hr
in
rain 24hr
in
rain mn
in
humidity
%
barometer
mb
20260507203039 71 267 8.0 18.0 0.00 0.00 0.00 21 1017.7
20260507201531 71 275 9.0 17.0 0.00 0.00 0.00 21 1017.7
20260507200028 71 260 12.0 17.0 0.00 0.00 0.00 20 1017.8
20260507194529 70 252 8.0 21.0 0.00 0.00 0.00 20 1017.9
20260507193027 69 240 10.0 17.0 0.00 0.00 0.00 19 1018.0
20260507191535 69 258 11.0 19.0 0.00 0.00 0.00 23 1018.0
20260507190031 69 236 10.0 16.0 0.00 0.00 0.00 25 1018.2
20260507184532 68 277 10.0 15.0 0.00 0.00 0.00 25 1018.3
20260507183034 66 267 8.0 13.0 0.00 0.00 0.00 30 1018.4
20260507181527 66 255 8.0 13.0 0.00 0.00 0.00 32 1018.6
20260507180028 66 224 5.0 16.0 0.00 0.00 0.00 34 1018.6
20260507174535 64 241 5.0 14.0 0.00 0.00 0.00 34 1018.7
20260507173039 64 249 11.0 16.0 0.00 0.00 0.00 34 1018.9
20260507171522 62 269 6.0 15.0 0.00 0.00 0.00 35 1018.8
20260507170006 63 277 8.0 14.0 0.00 0.00 0.00 35 1018.9
20260507164518 61 262 9.0 13.0 0.00 0.00 0.00 45 1019.0
20260507163006 58 262 6.0 11.0 0.00 0.00 0.00 49 1019.2
20260507161508 56 297 6.0 11.0 0.00 0.00 0.00 54 1019.3
20260507160018 56 266 7.0 11.0 0.00 0.00 0.00 55 1019.3
20260507154506 54 255 6.0 11.0 0.00 0.00 0.00 58 1019.3
20260507153017 54 267 9.0 12.0 0.00 0.00 0.00 56 1019.3
20260507151518 54 278 8.0 13.0 0.00 0.00 0.00 57 1019.3
20260507150032 53 288 7.0 12.0 0.00 0.00 0.00 59 1019.5
20260507144506 51 241 5.0 9.0 0.00 0.00 0.00 62 1019.4
20260507143008 50 248 4.0 7.0 0.00 0.00 0.00 65 1019.4
20260507141508 47 277 2.0 4.0 0.00 0.00 0.00 70 1019.5
20260507140023 44 173 0.0 2.0 0.00 0.00 0.00 73 1019.4
20260507134505 44 171 1.0 3.0 0.00 0.00 0.00 71 1019.3
20260507133030 43 296 3.0 6.0 0.00 0.00 0.00 73 1019.2
20260507131522 42 277 1.0 3.0 0.00 0.00 0.00 74 1019.2
20260507130023 43 279 2.0 6.0 0.00 0.00 0.00 72 1019.3
20260507124528 43 288 2.0 4.0 0.00 0.00 0.00 73 1019.2
20260507123034 42 281 2.0 5.0 0.00 0.00 0.00 71 1019.2
20260507121527 46 270 3.0 8.0 0.00 0.00 0.00 66 1019.2
20260507120028 46 306 5.0 9.0 0.00 0.00 0.00 66 1019.1
20260507114526 46 304 6.0 10.0 0.00 0.00 0.00 67 1019.1
20260507113027 45 286 3.0 6.0 0.00 0.00 0.00 68 1019.2
20260507111524 44 275 3.0 6.0 0.00 0.00 0.00 68 1019.4
20260507110036 44 261 2.0 6.0 0.00 0.00 0.00 67 1019.4
20260507104529 45 272 3.0 7.0 0.00 0.00 0.00 65 1019.4
20260507103031 46 263 4.0 8.0 0.00 0.00 0.00 63 1019.4
20260507101533 47 296 5.0 8.0 0.00 0.00 0.00 62 1019.4
20260507100027 47 279 3.0 6.0 0.00 0.00 0.00 62 1019.5
20260507094534 48 270 2.0 6.0 0.00 0.00 0.00 60 1019.5
20260507093028 48 273 2.0 6.0 0.00 0.00 0.00 60 1019.4
20260507091533 49 267 3.0 7.0 0.00 0.00 0.00 59 1019.4
20260507090011 49 257 3.0 7.0 0.00 0.00 0.00 58 1019.5
20260507084505 49 246 3.0 6.0 0.00 0.00 0.00 57 1019.4
20260507083005 49 269 3.0 6.0 0.00 0.00 0.00 58 1019.4
20260507081503 50 277 2.0 4.0 0.00 0.00 0.00 56 1019.5
20260507080007 50 321 1.0 5.0 0.00 0.00 0.00 57 1019.6
20260507074508 51 242 2.0 5.0 0.00 0.00 0.00 54 1019.7
20260507073008 52 267 2.0 5.0 0.00 0.00 0.00 52 1019.5
20260507071506 56 254 2.0 11.0 0.00 0.00 0.00 47 1019.4
20260507070013 53 300 4.0 8.0 0.00 0.00 0.00 51 1019.3
20260507064512 55 259 2.0 4.0 0.00 0.00 0.00 48 1019.4
20260507063028 57 277 1.0 4.0 0.00 0.00 0.00 45 1019.3
20260507061508 57 236 1.0 3.0 0.00 0.00 0.00 45 1019.2
20260507060012 57 221 0.0 3.0 0.00 0.00 0.00 44 1019.2
20260507054507 58 207 2.0 4.0 0.00 0.00 0.00 43 1019.2
20260507053007 60 169 3.0 6.0 0.00 0.00 0.00 39 1019.1
20260507051528 60 184 0.0 3.0 0.00 0.00 0.00 39 1019.0
20260507050031 61 196 1.0 3.0 0.00 0.00 0.00 38 1018.8
20260507044526 62 219 2.0 8.0 0.00 0.00 0.00 37 1018.6
20260507043026 64 329 3.0 9.0 0.00 0.00 0.00 35 1018.3
20260507041527 64 324 7.0 10.0 0.00 0.00 0.00 36 1018.3
20260507040026 65 310 4.0 10.0 0.00 0.00 0.00 35 1018.2
20260507034539 66 323 5.0 10.0 0.00 0.00 0.00 34 1018.0
20260507033037 67 319 6.0 12.0 0.00 0.00 0.00 33 1017.8
20260507031544 67 345 4.0 7.0 0.00 0.00 0.00 32 1017.6
20260507030031 69 321 3.0 9.0 0.00 0.00 0.00 28 1017.4
20260507024528 70 310 6.0 11.0 0.00 0.00 0.00 26 1017.2
20260507023026 71 299 7.0 13.0 0.00 0.00 0.00 23 1017.0
20260507021507 72 313 7.0 16.0 0.00 0.00 0.00 22 1017.0
20260507020009 73 297 9.0 17.0 0.00 0.00 0.00 20 1017.0
20260507014508 74 313 9.0 19.0 0.00 0.00 0.00 21 1016.9
20260507013003 75 276 13.0 21.0 0.00 0.00 0.00 21 1016.8
20260507011511 75 294 7.0 17.0 0.00 0.00 0.00 20 1016.8
20260507010006 76 259 10.0 18.0 0.00 0.00 0.00 16 1016.8
20260507004507 77 277 10.0 23.0 0.00 0.00 0.00 16 1016.7
20260507003006 77 276 12.0 18.0 0.00 0.00 0.00 17 1016.7
20260507001506 78 311 11.0 19.0 0.00 0.00 0.00 18 1016.8
20260507000005 78 266 12.0 19.0 0.00 0.00 0.00 19 1016.8
20260506234528 77 266 11.0 20.0 0.00 0.00 0.00 22 1016.7
20260506233008 79 211 11.0 17.0 0.00 0.00 0.00 23 1016.5
20260506231509 78 214 11.0 22.0 0.00 0.00 0.00 19 1016.7
20260506230007 78 219 13.0 19.0 0.00 0.00 0.00 18 1016.8
20260506224504 78 270 8.0 21.0 0.00 0.00 0.00 19 1017.2
20260506223014 78 219 10.0 30.0 0.00 0.00 0.00 20 1017.6
20260506221530 79 257 10.0 20.0 0.00 0.00 0.00 21 1017.9
20260506220006 78 225 10.0 20.0 0.00 0.00 0.00 21 1018.1
20260506214506 77 249 10.0 18.0 0.00 0.00 0.00 24 1018.3
20260506213028 77 219 8.0 20.0 0.00 0.00 0.00 24 1018.6
20260506211506 76 252 10.0 18.0 0.00 0.00 0.00 25 1018.8
20260506210012 76 302 8.0 17.0 0.00 0.00 0.00 23 1018.6
20260506204506 77 236 9.0 17.0 0.00 0.00 0.00 24 1018.7